Home   Weather   Mesquite   Past weeks

Flag for USA Past Weather in Mesquite, Texas, USA — Yesterday and Last 2 Weeks

Now
72 °F

Overcast.


Feels Like: 72 °F
Forecast: 67 / 83 °F
Wind: 6 mph from North

Location: Mesquite Metro Airport

Current Time: Jun 25, 2017 at 7:21:35 am

Latest Report: Jun 25, 2017 at 6:50 am


Visibility: 10 mi

Pressure: 30.20 "Hg

Humidity: 78%

Dew Point: 64 °F

Location of MesquiteLocation

Past Weather in Mesquite — Graph

°F

Mesquite Temperature Yesterday

Maximum temperature yesterday: 83 °F (at 12:15 am)
Minimum temperature yesterday: 70 °F (at 9:50 am)
Average temperature yesterday: 74 °F

High & Low Weather Summary for the Past Weeks

 TemperatureHumidityPressure
High97 °F (Jun 23, 4:50 pm)100% (Jun 10, 6:50 am)30.19 "Hg (Jun 10, 6:50 am)
Low68 °F (Jun 10, 6:50 am)38% (Jun 20, 4:50 pm)29.63 "Hg (Jun 22, 5:50 pm)
Average79 °F78%29.89 "Hg
* Reported Jun 10 5:35 am — Jun 25 5:55 am, Mesquite. Weather by CustomWeather, © 2017

Note: Actual official high and low records may vary slightly from our data, if they occured in-between our weather recording intervals... More about our weather records

Advertising

Mesquite Weather History for the Previous 24 Hours

Scroll right to see more
 ConditionsComfort  
Time TempWeatherWind HumidityBarometerVisibility
5:55 am
Sun, Jun 25
72 °FOvercast.3 mph81%30.19 "Hg10 mi
5:35 am72 °FOvercast.3 mph81%30.18 "Hg10 mi
5:15 am72 °FOvercast.No wind80%30.18 "Hg10 mi
4:55 am72 °FOvercast.No wind78%30.18 "Hg10 mi
4:35 am72 °FOvercast.No wind79%30.18 "Hg10 mi
4:15 am72 °FOvercast.3 mph79%30.18 "Hg10 mi
3:55 am72 °FMostly cloudy.No wind80%30.18 "Hg10 mi
3:35 am72 °FMostly cloudy.No wind81%30.18 "Hg10 mi
3:15 am71 °FOvercast.No wind83%30.18 "Hg10 mi
2:55 am71 °FOvercast.No wind83%30.18 "Hg10 mi
2:35 am71 °FOvercast.No wind84%30.18 "Hg10 mi
2:15 am71 °FPassing clouds.No wind83%30.18 "Hg10 mi
1:55 am71 °FPassing clouds.No wind84%30.18 "Hg10 mi
1:35 am71 °FPassing clouds.No wind83%30.18 "Hg10 mi
1:15 am71 °FPassing clouds.No wind81%30.18 "Hg10 mi
12:55 am72 °FClear.3 mph81%30.18 "Hg10 mi
12:35 am72 °FPassing clouds.5 mph80%30.18 "Hg10 mi
12:15 am72 °FOvercast.5 mph79%30.18 "Hg10 mi
11:55 pm
Sat, Jun 24
72 °FPassing clouds.3 mph78%30.18 "Hg10 mi
11:35 pm72 °FPassing clouds.No wind81%30.17 "Hg10 mi
11:15 pm72 °FClear.No wind80%30.17 "Hg10 mi
10:55 pm73 °FClear.No wind80%30.15 "Hg10 mi
10:35 pm73 °FClear.No wind81%30.15 "Hg10 mi
10:15 pm73 °FClear.No wind79%30.14 "Hg10 mi
9:55 pm74 °FClear.No wind76%30.13 "Hg10 mi
9:35 pm75 °FClear.No wind75%30.12 "Hg10 mi
9:15 pm75 °FClear.No wind74%30.12 "Hg10 mi
7:50 pm79 °FSunny.No wind70%30.09 "Hg10 mi
6:50 pm81 °FSunny.5 mph66%30.08 "Hg10 mi
5:50 pm81 °FSunny.No wind70%30.09 "Hg10 mi
4:50 pm81 °FSunny.No wind70%30.09 "Hg10 mi
3:50 pm77 °FScattered clouds.8 mph79%30.09 "Hg10 mi
2:50 pm77 °FMore clouds than sun.10 mph83%30.09 "Hg10 mi
1:50 pm75 °FBroken clouds.6 mph83%30.09 "Hg10 mi
12:50 pm75 °FBroken clouds.No wind89%30.12 "Hg10 mi
11:50 am72 °FScattered clouds.No wind94%30.11 "Hg10 mi
10:50 am70 °FFog.8 mph88%30.16 "Hg6 mi
9:50 am70 °FFog.9 mph94%30.17 "Hg2 mi
8:47 am72 °FFog.9 mph94%30.16 "Hg2 mi
7:50 am72 °FFog.5 mph94%30.12 "Hg6 mi
Weather by CustomWeather, © 2017

See weather overviewHow to use our weather pages